User: anonymous   Login
Location: Petruro
(41.0333°N, 14.7833°E)
Time: 11:23:06
(UTC+00:00)
Language:

ADEOS Rocket - Orbit

View from above orbital plane
View from above orbital plane
View from above satellite
View from above satellite

Ground track
Ground track

The orbit data is extracted from the following two-line orbital elements,

1 24279U 96046C   21259.63004627  .00000023  00000-0  76901-4 0  9998
2 24279  98.7463  29.1491 0299002 289.2650  77.8720 13.47194054232997
Epoch (UTC): 16 September 2021 15:07:15
Eccentricity: 0.0299002
inclination: 98.7463°
perigee height: 859 km
apogee height: 1305 km
right ascension of ascending node: 29.1491°
argument of perigee: 289.2650°
revolutions per day: 13.47194054
mean anomaly at epoch: 77.8720°
orbit number at epoch: 23299

The dashed part of the orbit path shows where the satellite is in the earth's shadow,  

DLR